GW0115 Weather Reports


time (UTC)temp
F
wind
direction
speed
knots
gust
knots
rain 1hr
in
rain 24hr
in
rain mn
in
humidity
%
barometer
mb
20260831051555 64 0 0.0 0.0 0.00 0.00 0.00 88 1019.1
20260831050103 64 0 0.0 0.0 0.00 0.00 0.00 87 1018.9
20260831044602 65 0 0.0 0.0 0.00 0.00 0.00 85 1018.8
20260831043056 66 0 0.0 3.5 0.00 0.00 0.00 83 1018.9
20260831041605 67 0 0.0 5.2 0.00 0.00 0.00 83 1018.7
20260831034557 67 0 0.0 0.0 0.00 0.00 0.00 83 1018.6
20260831033103 66 0 0.0 0.0 0.00 0.00 0.00 84 1018.6
20260831031558 67 0 0.0 0.0 0.00 0.00 0.00 84 1018.7
20260831030106 67 0 0.0 0.0 0.00 0.00 0.00 83 1018.7
20260831024553 67 0 0.0 0.0 0.00 0.00 0.00 82 1018.7
20260831023058 67 0 0.0 0.0 0.00 0.00 0.00 82 1018.5
20260831021600 68 0 0.0 0.0 0.00 0.00 0.00 80 1018.3
20260831020106 68 0 0.0 0.0 0.00 0.00 0.00 80 1018.4
20260831014617 68 0 0.0 0.0 0.00 0.00 0.00 79 1018.2
20260831013058 69 0 0.0 0.0 0.00 0.00 0.00 79 1018.2
20260831011612 69 0 0.0 2.6 0.00 0.00 0.00 78 1017.9
20260831004559 69 0 0.0 0.0 0.00 0.00 0.00 78 1017.1
20260831003056 68 0 0.0 0.0 0.00 0.00 0.00 79 1017.0
20260831001607 68 0 0.0 1.7 0.00 0.00 0.00 79 1017.1
20260831000103 69 0 0.0 1.7 0.00 0.00 0.00 80 1016.7
20260830234558 69 0 0.0 0.0 0.00 0.00 0.00 79 1016.7
20260830233108 70 0 0.0 0.0 0.00 0.00 0.00 78 1016.6
20260830231609 70 0 0.0 1.7 0.00 0.00 0.00 77 1016.6
20260830230059 70 0 0.0 0.9 0.00 0.00 0.00 78 1016.6
20260830224628 70 0 0.0 0.0 0.00 0.00 0.00 80 1016.7
20260830223105 70 0 0.0 2.6 0.00 0.00 0.00 78 1016.4
20260830221607 71 0 0.0 0.0 0.00 0.00 0.00 80 1016.3
20260830220104 71 0 0.0 6.1 0.00 0.00 0.00 79 1016.3
20260830214606 70 0 0.0 0.0 0.00 0.00 0.00 83 1016.0
20260830213102 70 0 0.0 0.0 0.00 0.00 0.00 85 1016.0
20260830211559 70 0 0.0 0.0 0.00 0.00 0.00 83 1016.1
20260830204601 72 0 0.0 0.0 0.00 0.00 0.00 78 1016.1
20260830203059 73 0 0.0 0.0 0.00 0.00 0.00 75 1016.1
20260830201558 73 0 0.0 0.0 0.00 0.00 0.00 74 1016.2
20260830200105 73 0 0.0 0.0 0.00 0.00 0.00 76 1016.1
20260830194551 73 0 0.0 0.0 0.00 0.00 0.00 75 1016.4
20260830193057 73 0 0.0 0.0 0.00 0.00 0.00 74 1016.6
20260830191556 73 0 0.0 0.0 0.00 0.00 0.00 76 1016.8
20260830190053 73 0 0.0 0.0 0.00 0.00 0.00 75 1017.0
20260830184557 73 0 0.0 0.0 0.00 0.00 0.00 74 1017.1
20260830183057 73 0 0.0 0.0 0.00 0.00 0.00 77 1017.4
20260830181601 72 0 0.0 0.0 0.00 0.00 0.00 77 1017.6
20260830180103 72 0 0.0 0.0 0.00 0.00 0.00 78 1017.6
20260830174558 71 0 0.0 0.0 0.00 0.00 0.00 79 1017.6
20260830173055 71 0 0.0 0.0 0.00 0.00 0.00 78 1017.9
20260830171610 70 0 0.0 0.0 0.00 0.00 0.00 79 1018.2
20260830170101 70 0 0.0 0.0 0.00 0.00 0.00 79 1018.3
20260830164613 69 0 0.0 0.0 0.00 0.00 0.00 79 1018.2
20260830163105 68 0 0.0 0.0 0.00 0.00 0.00 81 1018.4
20260830161613 68 0 0.0 0.0 0.00 0.00 0.00 80 1018.6
20260830154559 67 0 0.0 6.1 0.00 0.00 0.00 79 1019.0
20260830153106 67 0 0.0 0.9 0.00 0.00 0.00 79 1019.1
20260830151607 67 0 0.0 1.7 0.00 0.00 0.00 78 1019.0
20260830150100 67 0 0.0 0.9 0.00 0.00 0.00 80 1019.2
20260830144555 66 0 0.0 9.6 0.00 0.00 0.00 79 1019.5
20260830143113 66 0 0.0 0.0 0.00 0.00 0.00 81 1019.2
20260830141556 67 0 0.0 0.0 0.00 0.00 0.00 78 1018.7
20260830140106 67 0 0.0 7.8 0.00 0.00 0.00 77 1019.3
20260830134559 67 0 0.0 0.9 0.00 0.00 0.00 78 1019.3
20260830133055 66 0 0.0 7.8 0.00 0.00 0.00 79 1019.2
20260830131606 65 258 0.0 5.2 0.00 0.00 0.00 79 1019.2
20260830130108 65 0 0.0 6.1 0.00 0.00 0.00 79 1019.2
20260830124558 65 0 0.0 4.3 0.00 0.00 0.00 80 1019.2
20260830123123 65 0 0.0 2.6 0.00 0.00 0.00 79 1019.1
20260830121605 65 0 0.0 0.0 0.00 0.00 0.00 80 1019.3
20260830120059 64 0 0.0 0.0 0.00 0.00 0.00 80 1019.3
20260830114606 64 0 0.0 0.0 0.00 0.00 0.00 79 1019.2
20260830113059 63 0 0.0 0.0 0.00 0.00 0.00 79 1019.4
20260830111557 63 0 0.0 0.9 0.00 0.00 0.00 79 1019.4
20260830110059 63 0 0.0 0.9 0.00 0.00 0.00 77 1019.5
20260830104604 63 0 0.0 0.0 0.00 0.00 0.00 78 1019.4
20260830103058 63 0 0.0 0.9 0.00 0.00 0.00 76 1019.3
20260830101600 63 0 0.0 0.0 0.00 0.00 0.00 76 1019.5
20260830100058 64 0 0.0 0.0 0.00 0.00 0.00 76 1019.4
20260830094600 64 0 0.0 2.6 0.00 0.00 0.00 75 1019.3
20260830093113 64 0 0.0 0.0 0.00 0.00 0.00 74 1019.4
20260830091606 64 0 0.0 0.0 0.00 0.00 0.00 74 1019.5
20260830090107 64 0 0.0 1.7 0.00 0.00 0.00 73 1019.5
20260830084620 64 0 0.0 1.7 0.00 0.00 0.00 75 1019.5
20260830083057 64 0 0.0 0.0 0.00 0.00 0.00 73 1019.5
20260830081609 64 0 0.0 0.0 0.00 0.00 0.00 75 1019.4
20260830080059 65 0 0.0 0.0 0.00 0.00 0.00 71 1019.4
20260830074609 65 0 0.0 0.0 0.00 0.00 0.00 70 1019.6
20260830073106 66 0 0.0 0.0 0.00 0.00 0.00 69 1019.3
20260830071602 66 0 0.0 0.0 0.00 0.00 0.00 68 1019.4
20260830070058 66 0 0.0 0.9 0.00 0.00 0.00 66 1019.4
20260830064559 66 0 0.0 0.0 0.00 0.00 0.00 68 1019.2
20260830063105 67 0 0.0 4.3 0.00 0.00 0.00 65 1019.4
20260830061558 67 0 0.0 3.5 0.00 0.00 0.00 66 1019.6
20260830060100 67 0 0.0 6.1 0.00 0.00 0.00 65 1019.6
20260830054556 66 0 0.0 0.9 0.00 0.00 0.00 66 1019.7
20260830053059 66 0 0.0 0.9 0.00 0.00 0.00 66 1019.7